TimeCDT,TemperatureF,Dew PointF,Humidity,Sea Level PressureIn,VisibilityMPH,Wind Direction,Wind SpeedMPH,Gust SpeedMPH,PrecipitationIn,Events,Conditions,WindDirDegrees,DateUTC
12:53 AM,80.1,72.0,76,29.96,10.0,NE,4.6,-,N/A,,Overcast,40,2013-06-15 05:53:00
1:53 AM,78.1,72.0,81,29.94,10.0,NE,6.9,-,N/A,,Partly Cloudy,40,2013-06-15 06:53:00
2:53 AM,78.1,71.1,79,29.93,10.0,NE,3.5,-,N/A,,Clear,50,2013-06-15 07:53:00
3:53 AM,75.9,71.1,85,29.94,10.0,NNE,3.5,-,N/A,,Clear,30,2013-06-15 08:53:00
4:53 AM,75.0,70.0,84,29.94,10.0,ENE,3.5,-,N/A,,Clear,60,2013-06-15 09:53:00
5:53 AM,73.9,69.1,85,29.95,10.0,NE,3.5,-,N/A,,Clear,40,2013-06-15 10:53:00
6:53 AM,73.9,70.0,87,29.97,10.0,Calm,Calm,-,N/A,,Clear,0,2013-06-15 11:53:00
7:53 AM,75.9,69.1,79,29.98,10.0,Calm,Calm,-,N/A,,Clear,0,2013-06-15 12:53:00
8:53 AM,80.1,70.0,71,30.00,10.0,East,3.5,-,N/A,,Clear,80,2013-06-15 13:53:00
9:53 AM,82.9,71.1,67,30.00,10.0,Variable,3.5,-,N/A,,Clear,0,2013-06-15 14:53:00
10:53 AM,84.9,72.0,65,29.99,10.0,South,3.5,-,N/A,,Clear,170,2013-06-15 15:53:00
11:53 AM,87.1,73.9,65,30.00,10.0,Calm,Calm,-,N/A,,Mostly Cloudy,0,2013-06-15 16:53:00
12:53 PM,88.0,75.0,65,29.99,10.0,Calm,Calm,-,N/A,,Partly Cloudy,0,2013-06-15 17:53:00
1:53 PM,89.1,75.0,63,29.98,10.0,Calm,Calm,-,N/A,,Mostly Cloudy,0,2013-06-15 18:53:00
2:53 PM,91.9,73.9,55,29.96,10.0,NNE,3.5,-,N/A,,Partly Cloudy,20,2013-06-15 19:53:00
3:53 PM,91.0,73.9,57,29.94,10.0,ENE,3.5,-,N/A,,Scattered Clouds,70,2013-06-15 20:53:00
4:53 PM,91.0,73.0,55,29.93,10.0,Variable,3.5,-,N/A,,Mostly Cloudy,0,2013-06-15 21:53:00
5:53 PM,87.1,77.0,72,29.92,10.0,SE,4.6,-,N/A,Thunderstorm,Overcast,130,2013-06-15 22:53:00
6:53 PM,82.9,78.1,85,29.93,4.0,NNW,6.9,-,0.07,Rain,Light Rain,330,2013-06-15 23:53:00
7:53 PM,82.9,80.1,91,29.94,5.0,Calm,Calm,-,0.01,,Mostly Cloudy,0,2013-06-16 00:53:00
8:53 PM,82.9,80.1,91,29.94,5.0,Calm,Calm,-,N/A,,Scattered Clouds,0,2013-06-16 01:53:00
9:53 PM,82.9,75.0,77,29.97,10.0,SW,6.9,-,N/A,,Partly Cloudy,220,2013-06-16 02:53:00
10:53 PM,82.9,75.0,77,29.99,10.0,WSW,6.9,-,N/A,,Clear,240,2013-06-16 03:53:00
11:53 PM,82.0,75.0,79,30.00,10.0,WSW,5.8,-,N/A,,Clear,250,2013-06-16 04:53:00